Skip Page Navigation
NASA JPL Caltech
NASA Logo - Jet Propulsion Laboratory + View the NASA Portal
+ Center for Near-Earth Object Studies
JPL Home Earth Solar System Stars & Galaxies Technology
JPL Solar System Dynamics
BODIES ORBITS EPHEMERIDES TOOLS PHYSICAL DATA DISCOVERY FAQ SITE MAP
JPL Small-Body Database Browser
Search: [ help ]  
175267 (2005 JF136)
Classification: Main-belt Asteroid          SPK-ID: 2175267
Ephemeris | Orbit Diagram | Orbital Elements | Mission Design | Physical Parameters | Discovery Circumstances | Close-Approach Data ]

[ show orbit diagram ]
Orbital Elements at Epoch 2459200.5 (2020-Dec-17.0) TDB
Reference: JPL 17 (heliocentric ecliptic J2000)
 Element Value Uncertainty (1-sigma)   Units 
e .02905153977479285 5.0648e-08  
a 2.667074809740463 1.8037e-08 au
q 2.58959217982294 1.3762e-07 au
i 8.118832086430803 4.947e-06 deg
node 99.79828833301015 3.3376e-05 deg
peri 121.1259362623802 8.2752e-05 deg
M 208.8425545148251 7.797e-05 deg
tp 2459868.502774484698
(2022-Oct-16.00277448)
0.00034686 TDB
period 1590.930556166861
4.36
1.6139e-05
4.419e-08
d
yr
n .2262826611787336 2.2955e-09 deg/d
Q 2.744557439657985 1.8561e-08 au
  Orbit Determination Parameters
   # obs. used (total)      369  
   data-arc span      6670 days (18.26 yr)  
   first obs. used      2002-10-04  
   last obs. used      2021-01-07  
   planetary ephem.      DE431  
   SB-pert. ephem.      SB431-N16  
   condition code      0  
   norm. resid. RMS      .59234  
   source      ORB  
   producer      Otto Matic  
   solution date      2021-Feb-24 11:32:53  

Additional Information
 Earth MOID = 1.58664 au 
 Jupiter MOID = 2.25717 au 
 T_jup = 3.368 
[ show covariance matrix ]

Ephemeris | Orbit Diagram | Orbital Elements | Mission Design | Physical Parameters | Discovery Circumstances | Close-Approach Data ]

Physical Parameter Table
Parameter Symbol Value Units Sigma Reference Notes
absolute magnitude H 15.8   n/a MPO439998  

175267 (2005 JF136)          Discovered 2005-May-11 by CSS at Catalina
Reference: 20080122/Numbers.arcLast Updated: 2008-01-28

[ show close-approach data ]
Alternate Designations
 2005 JF136 = 2003 YF166 
Ephemeris | Orbit Diagram | Orbital Elements | Mission Design | Physical Parameters | Discovery Circumstances | Close-Approach Data ]
ABOUT SSD CREDITS/AWARDS PRIVACY/COPYRIGHT GLOSSARY LINKS
FirstGov 2021-Apr-13 06:38 UT
(server date/time)  
NASA Home Page
Site Manager:   Ryan S. Park
Webmaster  Alan B. Chamberlin